Regional Weather Roundup
Issued by NWS Sioux Falls, SD

Home | Current Version | Previous Version | Text Only | Print | Product List | Glossary Off
Versions: 1 2 3 4 5 6 7 8 9 10 11 12 13 14 15 16 17 18 19 20 21 22 23 24 25 26 27 28 29 30 31 32 33 34 35 36 37 38 39 40 41 42 43 44 45 46 47 48 49 50

000
ASUS43 KFSD 200102
RWRFSD

WEATHER ROUNDUP FOR SE SOUTH DAKOTA/SW MINNESOTA/NW IOWA
NATIONAL WEATHER SERVICE SIOUX FALLS SD
700 PM CST THU JAN 19 2017

NOTE: "FAIR" INDICATES FEW OR NO CLOUDS BELOW 12,000 FEET WITH NO
SIGNIFICANT WEATHER AND OR OBSTRUCTIONS TO VISIBILITY.


SDZ038>040-050-052>070-200200-
SOUTHEAST SOUTH DAKOTA

CITY           SKY/WX    TMP DP  RH WIND       PRES   REMARKS
BROOKINGS      FOG       35  34  96 SE16      29.60S VSB 3/4 WCI  25
CHAMBERLAIN    PTCLDY    37  37  99 SE7       29.51F
HURON          CLOUDY    37  37 100 S13       29.55F FOG
MADISON        CLOUDY    34  34 100 S10         N/A  WCI  26
MITCHELL       CLOUDY    40  40 100 S15       29.57F FOG
SIOUX FALLS    FOG       37  37 100 SE10      29.62F VSB 1/2
WINNER         FAIR      39  35  86 S15       29.48F
YANKTON        CLOUDY    39  37  93 SE9       29.60F
$$

MNZ071-072-080-081-089-090-097-098-200200-
SOUTHWEST MINNESOTA

CITY           SKY/WX    TMP DP  RH WIND       PRES   REMARKS
FAIRMONT       CLOUDY    34  33  96 SE10      29.70F FOG     WCI  26
JACKSON        CLOUDY    34  34 100 SE9       29.69S FOG     WCI  26
LUVERNE        FOG       36  34  93 SE3       29.65F VSB 1/4
MARSHALL       FOG       36  36 100 SE10      29.66F VSB 3/4
MONTEVIDEO     FOG       36  36 100 S7        29.69S VSB 1/4
PIPESTONE      FOG       37  36  93 S10       29.62F VSB 3/4
REDWOOD FALLS  CLOUDY    35  33  92 SE3       29.68F FOG
TRACY          CLOUDY    37  37  99 S9        29.65F FOG
WINDOM         FOG       36  36 100 SE3       29.68S VSB 3/4
WORTHINGTON    FOG       35  34  96 E5        29.67F VSB 1/4
$$

IAZ001>003-012>014-020>022-031-032-NEZ013-014-SDZ071-200200-
NORTHWEST IOWA

CITY           SKY/WX    TMP DP  RH WIND       PRES   REMARKS
CHEROKEE       CLOUDY    37  37 100 CALM      29.68S FOG
DENISON        FOG       37  37 100 SE5       29.65S VSB 1
ESTHERVILLE    FOG       34  34 100 SE7       29.69S VSB 3/4 WCI  28
LE MARS        CLOUDY    39  39 100 SE5       29.67F FOG
ORANGE CITY    FOG       37  37 100 CALM      29.66F VSB 1/4
SHELDON        MIX PCPN  36  36 100 E7        29.65S VSB 1/2
SIOUX CITY     FOG       39  39 100 SE5       29.66S VSB 1/2
SPENCER        FOG       36  36 100 E5        29.68S VSB 1/4
STORM LAKE     FOG       36  36 100 SE6       29.67S VSB<1/4
$$

ABBREVIATIONS USED IN REMARKS
   TC - TEMPERATURE IN CELSIUS
  WCI - WIND CHILL INDEX
   HX - HEAT INDEX
  VSB - VISIBILITY





USA.gov is the U.S. government's official web portal to all federal, state and local government web resources and services.